Location: ?????
(55.6500°N, 37.2500°E)
Time: 03:06:40
(UTC+00:00)

Cosmos 614 Rocket - Pass Details

Date: 19 May 2025
Orbit: 729 x 758 km, 74.1° (Epoch: 15 June)

Event Time Altitude Azimuth Distance (km) Brightness Sun altitude
Exits shadow 23:34:38 11° 189° (S) 2,248 5.8 -9.7°
Maximum altitude 23:39:37 59° 111° (ESE) 874 4.4 -9.3°
Drops below altitude 10° 23:44:44 10° 33° (NNE) 2,295 8.2 -9.0°
Sets 23:47:08 0° 30° (NNE) 3,221 9.7 -8.8°
